This is the latest recevied weather packets stored in our database for station/object IW7DVM-13. If no packets are shown the sender has not sent any weather packets the latest 1 day(s).
| Time | Temp. | Humidity | Pressure | Rain* | Wind** | Luminosity | Snow |
|---|---|---|---|---|---|---|---|
| 1777980303 | 19.44° C | 71% | 1012 hPa | 0 mm | 2.24 m/s, 146° | - | - |
| 1777980003 | 19.44° C | 71% | 1012 hPa | 0 mm | 1.79 m/s, 141° | - | - |
| 1777979703 | 19.44° C | 71% | 1012 hPa | 0 mm | 1.34 m/s, 138° | - | - |
| 1777979403 | 19.44° C | 71% | 1012 hPa | 0 mm | 0.89 m/s, 129° | - | - |
| 1777979103 | 19.44° C | 71% | 1012.1 hPa | 0 mm | 0.89 m/s, 163° | - | - |
| 1777978803 | 19.44° C | 71% | 1012.1 hPa | 0 mm | 2.24 m/s, 146° | - | - |
| 1777978503 | 19.44° C | 71% | 1012.1 hPa | 0 mm | 1.79 m/s, 131° | - | - |
| 1777978203 | 19.44° C | 71% | 1012 hPa | 0 mm | 2.24 m/s, 124° | - | - |
| 1777977903 | 19.44° C | 71% | 1011.9 hPa | 0 mm | 2.68 m/s, 134° | - | - |
| 1777977603 | 19.44° C | 71% | 1011.8 hPa | 0 mm | 2.24 m/s, 133° | - | - |
| 1777977303 | 19.44° C | 71% | 1011.9 hPa | 0 mm | 1.79 m/s, 128° | - | - |
| 1777977003 | 19.44° C | 71% | 1011.8 hPa | 0 mm | 2.68 m/s, 130° | - | - |
| 1777976703 | 19.44° C | 70% | 1012 hPa | 0 mm | 2.24 m/s, 149° | - | - |
| 1777976403 | 20° C | 70% | 1011.9 hPa | 0 mm | 2.24 m/s, 138° | - | - |
| 1777976103 | 20° C | 70% | 1011.9 hPa | 0 mm | 2.24 m/s, 132° | - | - |
| 1777975803 | 19.44° C | 71% | 1011.9 hPa | 0 mm | 1.79 m/s, 87° | - | - |
| 1777975503 | 19.44° C | 71% | 1011.9 hPa | 0 mm | 2.24 m/s, 142° | - | - |
| 1777975203 | 19.44° C | 71% | 1012.1 hPa | 0 mm | 1.34 m/s, 137° | - | - |
| 1777974903 | 18.89° C | 71% | 1012.1 hPa | 0 mm | 2.24 m/s, 121° | - | - |
| 1777974603 | 18.89° C | 71% | 1012.2 hPa | 0 mm | 2.24 m/s, 142° | - | - |
| 1777974303 | 18.89° C | 71% | 1012.2 hPa | 0 mm | 2.24 m/s, 143° | - | - |
| 1777974003 | 18.89° C | 70% | 1012.2 hPa | 0 mm | 2.68 m/s, 145° | - | - |
| 1777973703 | 19.44° C | 70% | 1012.1 hPa | 0 mm | 2.24 m/s, 134° | - | - |
| 1777973403 | 19.44° C | 70% | 1012 hPa | 0 mm | 2.24 m/s, 130° | - | - |
| 1777973103 | 19.44° C | 70% | 1012.2 hPa | 0 mm | 1.79 m/s, 142° | - | - |
* Rain latest hour (hover to see other rain measurements)
** Current wind speed in m/s (hover to see current wind gust speed)